This is the latest recevied weather packets stored in our database for station/object LY3FF-10. If no packets are shown the sender has not sent any weather packets the latest 10 day(s).
| Time | Temp. | Humidity | Pressure | Rain* | Wind** | Luminosity | Snow |
|---|---|---|---|---|---|---|---|
| 1777670822 | 10.56° C | 53% | 1001.9 hPa | - | - | - | - |
| 1777670066 | 10.56° C | 53% | 1001.8 hPa | - | - | - | - |
| 1777669257 | 10.56° C | 53% | 1001.9 hPa | - | - | - | - |
| 1777668467 | 10.56° C | 52% | 1001.8 hPa | - | - | - | - |
| 1777667627 | 10.56° C | 51% | 1001.8 hPa | - | - | - | - |
| 1777666867 | 11.67° C | 50% | 1001.8 hPa | - | - | - | - |
| 1777665982 | 11.11° C | 49% | 1001.8 hPa | - | - | - | - |
| 1777665137 | 11.11° C | 49% | 1001.9 hPa | - | - | - | - |
| 1777664367 | 12.22° C | 48% | 1001.8 hPa | - | - | - | - |
| 1777663575 | 12.78° C | 47% | 1001.8 hPa | - | - | - | - |
| 1777662813 | 11.67° C | 46% | 1001.7 hPa | - | - | - | - |
| 1777661948 | 13.33° C | 45% | 1001.7 hPa | - | - | - | - |
| 1777661077 | 13.33° C | 44% | 1001.7 hPa | - | - | - | - |
| 1777660247 | 13.89° C | 43% | 1001.7 hPa | - | - | - | - |
| 1777659472 | 13.89° C | 42% | 1001.9 hPa | - | - | - | - |
| 1777658713 | 14.44° C | 42% | 1001.8 hPa | - | - | - | - |
| 1777657902 | 15° C | 41% | 1001.8 hPa | - | - | - | - |
| 1777657023 | 15° C | 40% | 1001.8 hPa | - | - | - | - |
| 1777656242 | 15.56° C | 39% | 1001.8 hPa | - | - | - | - |
| 1777655497 | 16.11° C | 39% | 1001.9 hPa | - | - | - | - |
| 1777654697 | 17.78° C | 38% | 1001.8 hPa | - | - | - | - |
| 1777653972 | 18.33° C | 37% | 1001.9 hPa | - | - | - | - |
| 1777653137 | 17.22° C | 37% | 1002.1 hPa | - | - | - | - |
| 1777652382 | 17.22° C | 38% | 1002.2 hPa | - | - | - | - |
| 1777651648 | 17.22° C | 38% | 1002.3 hPa | - | - | - | - |
* Rain since midnight (hover to see other rain measurements)
** Current wind speed in m/s (hover to see current wind gust speed)